W7CBM Weather Reports


time (UTC)temp
C
wind
direction
speed
KPH
gust
KPH
rain 1hr
cm
rain 24hr
cm
rain mn
cm
humidity
%
barometer
mb
20260502152101 16 299 3.2 4.8 0.00 0.00 0.00 34 1022.3
20260502151530 15 300 1.6 4.8 0.00 0.00 0.00 35 1022.6
20260502151030 15 299 0.0 0.0 0.00 0.00 0.00 37 1022.5
20260502150531 15 300 0.0 0.0 0.00 0.00 0.00 36 1022.6
20260502130529 3 299 3.2 3.2 0.00 0.00 0.00 72 1020.4
20260502123529 3 300 0.0 3.2 0.00 0.00 0.00 72 1020.4
20260502123029 3 299 0.0 3.2 0.00 0.00 0.00 72 1020.3
20260502122529 3 299 0.0 4.8 0.00 0.00 0.00 72 1020.2
20260502122059 3 300 0.0 4.8 0.00 0.00 0.00 71 1020.2
20260502121529 3 300 3.2 3.2 0.00 0.00 0.00 71 1020.5
20260502121029 3 300 0.0 0.0 0.00 0.00 0.00 71 1020.6
20260502115528 4 300 0.0 3.2 0.00 0.00 0.00 71 1020.8
20260502114029 4 300 0.0 0.0 0.00 0.00 0.00 71 1020.8
20260502113558 4 299 0.0 3.2 0.00 0.00 0.00 71 1020.8
20260502113058 4 300 0.0 3.2 0.00 0.00 0.00 71 1020.7
20260502112558 4 300 3.2 3.2 0.00 0.00 0.00 71 1020.8
20260502112058 4 300 0.0 0.0 0.00 0.00 0.00 71 1020.8
20260502111558 4 300 0.0 0.0 0.00 0.00 0.00 70 1020.8
20260502111028 4 299 0.0 0.0 0.00 0.00 0.00 70 1020.8
20260502110558 5 299 0.0 0.0 0.00 0.00 0.00 70 1021.1
20260502110058 5 300 0.0 0.0 0.00 0.00 0.00 70 1021.2
20260502105558 5 300 0.0 0.0 0.00 0.00 0.00 70 1021.1
20260502105028 5 300 0.0 3.2 0.00 0.00 0.00 70 1021.2
20260502103558 5 300 0.0 1.6 0.00 0.00 0.00 69 1021.0
20260502103028 5 300 1.6 1.6 0.00 0.00 0.00 69 1020.9
20260502102528 5 299 0.0 0.0 0.00 0.00 0.00 69 1020.9
20260502102058 5 301 0.0 0.0 0.00 0.00 0.00 69 1020.9
20260502101057 5 299 0.0 0.0 0.00 0.00 0.00 68 1021.0
20260502100528 5 300 0.0 0.0 0.00 0.00 0.00 68 1021.0
20260502091027 6 300 0.0 0.0 0.00 0.00 0.00 67 1021.0
20260502090557 6 300 0.0 0.0 0.00 0.00 0.00 66 1020.9
20260502071056 7 296 0.0 3.2 0.00 0.00 0.00 62 1020.9
20260502070526 7 295 0.0 0.0 0.00 0.00 0.00 61 1021.0
20260502064556 8 296 0.0 4.8 0.00 0.00 0.00 59 1021.3
20260502064056 8 296 3.2 4.8 0.00 0.00 0.00 59 1021.2
20260502063556 8 296 0.0 1.6 0.00 0.00 0.00 58 1021.1
20260502063056 8 296 0.0 1.6 0.00 0.00 0.00 57 1021.1
20260502062555 8 296 1.6 1.6 0.00 0.00 0.00 57 1021.1
20260502062056 8 296 0.0 3.2 0.00 0.00 0.00 57 1021.2
20260502061555 8 296 0.0 3.2 0.00 0.00 0.00 57 1020.8
20260502061056 8 296 3.2 3.2 0.00 0.00 0.00 56 1020.8
20260502060556 8 296 0.0 3.2 0.00 0.00 0.00 56 1020.8
20260502060055 8 296 0.0 3.2 0.00 0.00 0.00 56 1020.7
20260502055556 8 296 0.0 0.0 0.00 0.00 0.00 54 1020.7
20260502055055 9 296 0.0 0.0 0.00 0.00 0.00 54 1021.1
20260502054555 9 296 0.0 0.0 0.00 0.00 0.00 54 1021.1
20260502054055 9 296 0.0 0.0 0.00 0.00 0.00 53 1021.0
20260502053555 10 296 0.0 1.6 0.00 0.00 0.00 52 1020.9
20260502053055 10 297 0.0 1.6 0.00 0.00 0.00 52 1020.9
20260502052555 10 296 0.0 0.0 0.00 0.00 0.00 51 1020.8
20260502052055 10 296 0.0 0.0 0.00 0.00 0.00 50 1021.1
20260502051555 10 296 0.0 0.0 0.00 0.00 0.00 49 1020.9
20260502050055 11 296 0.0 1.6 0.00 0.00 0.00 47 1020.8
20260502045555 11 296 0.0 1.6 0.00 0.00 0.00 46 1021.1
20260502044555 11 296 0.0 4.8 0.00 0.00 0.00 45 1021.1
20260502044054 11 297 0.0 4.8 0.00 0.00 0.00 45 1021.1
20260502043554 11 296 0.0 3.2 0.00 0.00 0.00 44 1020.9
20260502043054 11 296 0.0 3.2 0.00 0.00 0.00 44 1020.9
20260502042055 11 296 0.0 9.7 0.00 0.00 0.00 43 1020.8
20260502041555 11 295 1.6 9.7 0.00 0.00 0.00 42 1020.2
20260502041054 12 293 0.0 1.6 0.00 0.00 0.00 41 1020.5
20260502035554 12 293 0.0 0.0 0.00 0.00 0.00 38 1020.4
20260502034554 13 292 0.0 0.0 0.00 0.00 0.00 36 1020.5
20260502034054 13 293 0.0 1.6 0.00 0.00 0.00 35 1020.5
20260502033054 13 293 0.0 1.6 0.00 0.00 0.00 33 1020.3
20260502032554 13 294 0.0 3.2 0.00 0.00 0.00 32 1020.3
20260502031554 14 293 3.2 4.8 0.00 0.00 0.00 31 1019.8
20260502031054 14 293 1.6 3.2 0.00 0.00 0.00 30 1019.8
20260502030054 15 292 0.0 1.6 0.00 0.00 0.00 28 1019.6
20260502025054 15 292 0.0 4.8 0.00 0.00 0.00 27 1019.4
20260502024554 15 293 3.2 9.7 0.00 0.00 0.00 26 1019.7
20260502024054 15 292 3.2 9.7 0.00 0.00 0.00 26 1019.6
20260502023554 15 292 1.6 6.4 0.00 0.00 0.00 26 1019.6
20260502022553 16 292 4.8 12.9 0.00 0.00 0.00 25 1019.5
20260502021554 16 324 4.8 11.3 0.00 0.00 0.00 26 1018.5
20260502020554 16 282 9.7 14.5 0.00 0.00 0.00 26 1018.7
20260502015553 17 313 4.8 12.9 0.00 0.00 0.00 28 1018.8
20260502015053 17 321 4.8 12.9 0.00 0.00 0.00 27 1018.5
20260502014553 17 286 9.7 12.9 0.00 0.00 0.00 27 1018.9
20260502014053 17 332 6.4 12.9 0.00 0.00 0.00 27 1018.7
20260502013553 17 280 4.8 16.1 0.00 0.00 0.00 27 1018.8
20260502013053 17 331 8.0 20.9 0.00 0.00 0.00 28 1018.8
20260502012553 17 337 4.8 20.9 0.00 0.00 0.00 28 1018.7
20260502011553 17 327 4.8 20.9 0.00 0.00 0.00 27 1017.2
20260502011053 17 322 1.6 20.9 0.00 0.00 0.00 28 1017.2
20260502010053 18 21 11.3 19.3 0.00 0.00 0.00 28 1017.3
20260502005553 18 284 11.3 16.1 0.00 0.00 0.00 27 1017.3
20260502005053 18 300 11.3 16.1 0.00 0.00 0.00 28 1017.3
20260502004553 18 348 9.7 20.9 0.00 0.00 0.00 27 1017.3
20260502004053 18 303 6.4 20.9 0.00 0.00 0.00 27 1017.3
20260502003552 18 336 9.7 19.3 0.00 0.00 0.00 27 1017.6
20260502003053 18 12 6.4 24.1 0.00 0.00 0.00 27 1017.6
20260502002553 18 284 9.7 24.1 0.00 0.00 0.00 27 1017.7
20260502002053 18 42 6.4 16.1 0.00 0.00 0.00 27 1017.7
20260502001553 19 291 14.5 25.7 0.00 0.00 0.00 26 1017.8
20260502001052 19 340 12.9 25.7 0.00 0.00 0.00 26 1017.8
20260502000552 19 284 6.4 19.3 0.00 0.00 0.00 26 1017.8
20260502000052 19 253 12.9 19.3 0.00 0.00 0.00 27 1017.9
20260501235552 19 18 8.0 17.7 0.00 0.00 0.00 26 1017.9
20260501235052 19 9 8.0 19.3 0.00 0.00 0.00 26 1017.9
20260501234052 19 317 4.8 19.3 0.00 0.00 0.00 26 1017.9
20260501233552 19 294 3.2 24.1 0.00 0.00 0.00 26 1017.9
20260501233052 19 333 9.7 24.1 0.00 0.00 0.00 26 1017.9
20260501232552 20 336 4.8 17.7 0.00 0.00 0.00 26 1018.3
20260501232052 19 289 12.9 16.1 0.00 0.00 0.00 26 1017.9
20260501231552 20 359 6.4 16.1 0.00 0.00 0.00 24 1018.3
20260501231052 20 272 12.9 17.7 0.00 0.00 0.00 24 1018.6
20260501230551 20 265 14.5 17.7 0.00 0.00 0.00 24 1018.6
20260501230051 20 352 3.2 20.9 0.00 0.00 0.00 25 1018.3
20260501225051 19 308 3.2 20.9 0.00 0.00 0.00 26 1018.4
20260501224552 20 297 11.3 20.9 0.00 0.00 0.00 24 1018.5
20260501224051 20 241 14.5 19.3 0.00 0.00 0.00 25 1018.6
20260501223551 20 265 12.9 17.7 0.00 0.00 0.00 24 1018.6
20260501222551 20 274 12.9 22.5 0.00 0.00 0.00 24 1018.6
20260501222051 20 269 9.7 22.5 0.00 0.00 0.00 24 1018.6
20260501221551 20 301 8.0 20.9 0.00 0.00 0.00 24 1019.3
20260501221051 20 260 6.4 19.3 0.00 0.00 0.00 24 1019.3
20260501220551 20 302 4.8 24.1 0.00 0.00 0.00 24 1019.4
20260501220051 19 35 3.2 24.1 0.00 0.00 0.00 24 1019.2
20260501215551 18 284 3.2 22.5 0.00 0.00 0.00 24 1019.2
20260501215051 19 284 12.9 22.5 0.00 0.00 0.00 25 1019.4
20260501214051 19 282 3.2 22.5 0.00 0.00 0.00 24 1019.4
20260501213051 18 7 6.4 24.1 0.00 0.00 0.00 25 1019.4
20260501212551 18 311 4.8 25.7 0.00 0.00 0.00 24 1019.5
20260501212051 19 8 3.2 25.7 0.00 0.00 0.00 23 1019.6
20260501211550 19 294 6.4 16.1 0.00 0.00 0.00 23 1019.8
20260501211050 18 7 9.7 19.3 0.00 0.00 0.00 24 1019.9
20260501210550 18 287 12.9 27.4 0.00 0.00 0.00 24 1019.9
20260501210050 19 359 8.0 27.4 0.00 0.00 0.00 24 1019.9
20260501205550 19 314 1.6 19.3 0.00 0.00 0.00 24 1020.0
20260501204550 19 324 9.7 17.7 0.00 0.00 0.00 24 1020.1
20260501204051 20 311 6.4 16.1 0.00 0.00 0.00 21 1020.4
20260501203550 20 275 11.3 16.1 0.00 0.00 0.00 23 1020.3
20260501203050 20 248 4.8 20.9 0.00 0.00 0.00 21 1020.3
20260501202050 19 278 11.3 19.3 0.00 0.00 0.00 23 1020.0
20260501201050 19 295 9.7 12.9 0.00 0.00 0.00 24 1020.5
20260501200550 19 225 4.8 17.7 0.00 0.00 0.00 22 1020.7
20260501200050 19 350 11.3 17.7 0.00 0.00 0.00 23 1020.8
20260501195050 18 240 6.4 14.5 0.00 0.00 0.00 22 1020.5
20260501194550 19 257 6.4 14.5 0.00 0.00 0.00 21 1020.7
20260501194050 19 279 6.4 14.5 0.00 0.00 0.00 21 1020.7
20260501193550 18 243 3.2 19.3 0.00 0.00 0.00 21 1020.4
20260501193050 18 283 6.4 19.3 0.00 0.00 0.00 23 1020.6
20260501192550 18 336 8.0 19.3 0.00 0.00 0.00 21 1020.6
20260501192049 18 226 4.8 8.0 0.00 0.00 0.00 22 1020.7
20260501191550 18 224 3.2 14.5 0.00 0.00 0.00 22 1021.6
20260501191049 18 214 6.4 14.5 0.00 0.00 0.00 21 1021.7
20260501190549 18 236 4.8 11.3 0.00 0.00 0.00 23 1021.7
20260501190049 18 236 3.2 11.3 0.00 0.00 0.00 23 1021.8
20260501185550 17 271 6.4 14.5 0.00 0.00 0.00 23 1021.5
20260501185049 18 302 3.2 19.3 0.00 0.00 0.00 22 1021.9
20260501184549 18 14 11.3 19.3 0.00 0.00 0.00 22 1021.9
20260501184049 18 286 6.4 14.5 0.00 0.00 0.00 23 1021.9
20260501183050 18 286 4.8 22.5 0.00 0.00 0.00 22 1022.0
20260501182549 17 299 8.0 22.5 0.00 0.00 0.00 24 1021.7
20260501181549 17 354 9.7 16.1 0.00 0.00 0.00 26 1021.8
20260501181049 17 11 3.2 16.1 0.00 0.00 0.00 25 1021.9
20260501180549 17 9 4.8 16.1 0.00 0.00 0.00 24 1022.0
20260501175549 16 29 6.4 19.3 0.00 0.00 0.00 25 1021.7
20260501174549 16 311 4.8 22.5 0.00 0.00 0.00 25 1021.8
20260501173549 16 338 0.0 16.1 0.00 0.00 0.00 24 1021.9
20260501173049 16 6 6.4 17.7 0.00 0.00 0.00 25 1021.9
20260501172549 16 90 9.7 17.7 0.00 0.00 0.00 27 1022.0
20260501172049 16 119 6.4 8.0 0.00 0.00 0.00 29 1022.1
20260501171049 16 123 8.0 8.0 0.00 0.00 0.00 30 1022.5
20260501170549 16 130 1.6 8.0 0.00 0.00 0.00 29 1022.4
20260501165048 15 179 8.0 12.9 0.00 0.00 0.00 32 1022.2
20260501164549 15 179 1.6 12.9 0.00 0.00 0.00 32 1022.2
20260501164049 15 59 4.8 9.7 0.00 0.00 0.00 32 1022.2
20260501163548 15 352 1.6 12.9 0.00 0.00 0.00 32 1022.2
20260501163048 15 40 3.2 12.9 0.00 0.00 0.00 33 1022.2
20260501162548 15 245 6.4 6.4 0.00 0.00 0.00 35 1022.2
20260501162048 15 244 3.2 6.4 0.00 0.00 0.00 36 1022.2
20260501161548 14 245 3.2 11.3 0.00 0.00 0.00 35 1021.9
20260501161048 14 245 0.0 11.3 0.00 0.00 0.00 35 1021.9
20260501160548 14 269 11.3 11.3 0.00 0.00 0.00 36 1022.0
20260501160048 13 292 0.0 6.4 0.00 0.00 0.00 36 1021.6
20260501154548 13 293 3.2 9.7 0.00 0.00 0.00 38 1021.6
20260501154048 13 293 3.2 9.7 0.00 0.00 0.00 38 1021.7
20260501153048 12 291 3.2 9.7 0.00 0.00 0.00 38 1021.3
20260501152548 12 298 3.2 6.4 0.00 0.00 0.00 41 1021.3